Location: ??????
(42.0089°N, 44.3281°E)
Time: 20:55:12
(UTC+00:00)

Cosmos 220 Rocket - Visible Passes

Search period start: 03 October 2023 00:00
Search period end: 13 October 2023 00:00
Orbit: 566 x 605 km, 74.0° (Epoch: 03 October)

Date Brightness Start Highest point End Pass type
(mag) Time Alt. Az. Time Alt. Az. Time Alt. Az.
08 Oct 7.2 01:48:14 10° NNE 01:49:45 12° NE 01:51:16 10° ENE visible
09 Oct 6.9 01:53:52 10° NNE 01:56:44 17° ENE 01:59:37 10° E visible
10 Oct 6.4 02:00:03 10° N 02:03:39 25° ENE 02:07:16 10° ESE visible
11 Oct 5.6 02:06:27 10° N 02:10:30 37° ENE 02:14:34 10° SE visible
11 Oct 5.2 16:10:03 10° S 16:12:02 26° SSE 16:12:02 26° SSE visible
12 Oct 4.7 02:13:00 10° NNW 02:17:18 59° ENE 02:21:36 10° SSE visible
12 Oct 3.7 16:16:33 10° SSW 16:20:42 78° ESE 16:21:20 62° NE visible
